Wind_Speed
22 22 22 21 19 19 20 20 20 20 21 21 19 19 18 18 17 18 18 19 19 18 17 16 16 15 14 14 14 14 13 13 13 13 12 12 12 11 10 10 9 9 9 9 8 8 7 8 8 8 8 9 9 10 10 11 11 11 11 11 11 11 11
24 22 22 22 20 19 20 21 20 21 22 22 20 19 19 18 18 18 18 19 19 19 19 17 16 16 15 15 15 15 14 14 14 14 13 12 12 12 11 11 11 11 11 11 10 10 9 9 9 9 9 9 9 10 10 11 11 10 11 11 11 11 10
23 22 22 22 21 20 21 21 21 22 22 22 21 20 20 20 19 19 19 19 19 19 19 19 18 17 16 16 15 15 15 15 15 14 14 13 13 12 12 12 13 13 13 12 12 11 11 11 10 10 10 10 10 10 11 11 11 11 10 11 11 11 11
17 18 20 23 24 23 23 23 23 23 22 22 22 22 22 21 21 20 19 18 18 19 19 19 18 18 18 17 16 16 16 15 15 15 14 14 14 14 13 14 14 13 13 13 13 13 12 12 11 11 11 11 11 11 11 11 11 11 11 11 11 11 11
15 17 18 23 25 24 23 23 24 23 23 22 23 23 23 22 21 21 20 18 18 18 18 18 18 18 18 18 17 16 16 16 15 15 15 15 15 15 14 14 14 13 13 13 12 12 12 12 12 12 12 11 11 12 12 12 12 12 11 11 11 11 11
19 20 20 22 24 23 23 23 24 24 23 23 24 24 24 24 23 22 21 20 18 18 17 17 18 18 19 19 18 18 17 16 16 16 16 16 16 16 16 15 14 14 13 13 12 12 12 12 12 12 12 12 11 12 12 12 12 12 12 11 11 11 11
22 23 22 21 21 21 22 23 24 23 24 24 24 24 25 25 25 24 23 22 20 19 18 18 18 19 19 20 20 20 19 18 17 17 17 17 17 17 17 16 16 15 14 13 12 12 11 11 12 12 12 12 12 12 12 12 12 11 11 11 10 10 10
23 24 23 22 22 21 22 24 24 24 24 23 23 24 24 25 26 26 25 24 23 22 21 20 19 19 20 20 20 21 21 20 19 19 19 19 18 18 18 18 17 16 16 15 14 13 13 12 12 12 12 12 12 12 12 12 12 11 11 10 10 10 10
23 24 24 24 23 23 24 25 25 25 24 24 24 25 25 25 25 26 26 26 25 25 24 23 22 21 21 20 20 21 21 22 22 21 21 21 20 20 19 19 18 18 17 17 16 16 15 15 14 14 13 13 13 13 13 12 12 11 11 10 11 11 10
23 24 25 24 24 24 25 27 27 25 24 24 25 26 25 25 25 26 26 27 27 27 27 26 25 24 23 22 21 21 21 22 22 23 23 23 23 22 21 20 19 19 19 19 18 18 17 17 16 16 15 14 14 13 13 13 12 11 11 11 11 11 11
23 23 24 24 25 25 25 27 27 27 26 25 26 27 26 25 25 25 26 26 27 27 27 26 26 26 26 25 24 23 22 22 22 23 24 25 25 24 23 22 21 21 20 20 20 19 19 19 18 18 17 17 16 16 15 14 14 13 12 13 13 12 12
24 24 24 24 24 24 24 25 26 27 26 26 27 27 26 26 26 25 25 26 26 26 26 26 27 27 28 28 27 25 24 23 23 24 25 25 26 25 24 24 23 23 22 21 21 21 20 20 20 20 19 19 19 18 18 17 16 16 15 15 15 14 14
24 24 24 24 25 24 24 24 24 24 24 25 27 28 28 27 27 27 26 27 27 27 27 27 27 27 27 28 28 28 27 26 25 25 26 26 26 26 25 25 25 24 23 23 23 22 22 22 21 21 21 21 20 20 19 19 18 18 17 17 17 16 16
25 25 25 25 25 24 23 23 23 23 23 24 26 27 28 28 28 29 29 30 29 29 28 28 26 26 27 27 27 28 29 29 28 28 27 27 27 27 26 26 26 25 25 24 24 24 24 23 23 23 23 22 22 21 21 20 20 19 18 18 18 18 17
26 27 27 26 25 24 23 22 22 22 22 24 25 26 26 28 29 30 31 32 32 30 29 28 27 27 27 26 26 26 27 29 30 30 30 29 29 28 27 27 26 26 26 25 25 25 25 25 25 25 24 24 23 22 22 21 21 20 19 19 19 19 19
28 29 29 29 28 26 25 23 22 22 21 22 24 26 26 26 28 28 29 31 31 31 30 29 28 28 28 27 27 27 27 28 29 30 31 31 31 30 29 28 27 27 27 27 27 27 27 27 27 27 26 26 25 24 23 23 22 21 21 20 21 20 20
29 30 30 30 29 28 27 26 24 23 22 21 22 24 25 24 25 26 27 28 29 30 30 30 30 30 30 31 30 29 29 29 29 29 29 30 31 31 32 31 30 29 28 28 28 28 28 29 28 28 28 27 27 26 25 24 23 23 23 22 22 22 21
29 31 31 31 30 29 28 28 27 27 25 23 22 23 24 23 23 23 25 26 28 30 32 32 32 32 33 33 33 32 32 31 30 29 28 29 30 31 33 34 33 32 31 31 30 30 30 30 30 29 29 28 28 27 26 25 25 26 25 24 24 24 23
28 29 32 32 31 30 30 30 30 30 29 27 25 25 25 25 24 23 24 25 27 30 32 34 34 35 35 35 35 35 34 34 33 33 32 32 31 32 34 36 36 35 34 33 33 32 32 31 31 31 30 29 29 28 26 26 27 28 27 26 26 26 25
28 27 29 30 30 30 31 31 32 32 32 32 30 29 28 28 28 28 27 27 27 29 30 33 35 36 36 36 37 36 36 36 37 37 36 37 36 36 36 36 35 35 35 35 35 34 34 34 33 32 31 31 30 28 27 28 29 29 28 28 27 27 27
30 27 27 27 28 30 31 32 33 34 34 34 34 33 32 32 32 32 31 30 30 30 30 31 33 36 38 38 38 37 37 37 37 36 36 37 38 38 39 39 38 36 36 37 36 35 35 35 35 35 34 33 31 29 29 30 30 30 29 29 28 28 27
31 29 28 28 29 31 32 32 33 35 35 36 36 35 35 34 34 33 33 33 33 32 31 30 32 35 38 39 39 38 38 37 36 35 34 34 35 36 38 41 43 40 39 39 40 39 39 37 36 36 36 35 32 31 31 31 31 30 30 29 28 28 27
34 31 31 31 32 33 34 33 33 34 35 36 36 36 35 34 34 33 33 34 34 34 34 32 32 33 34 36 38 39 38 37 37 36 35 34 34 35 35 38 41 41 41 42 43 43 42 40 37 38 38 36 34 33 33 32 31 31 31 30 30 29 28
36 35 35 34 34 35 36 35 34 34 35 35 35 35 34 33 32 32 32 33 34 35 35 35 33 32 32 33 35 36 35 34 34 35 35 34 34 34 34 35 36 37 39 43 46 46 44 40 38 37 37 36 36 35 35 35 33 33 32 31 31 30 30
37 38 39 38 38 38 38 37 35 34 35 35 34 34 34 33 31 31 32 33 34 35 36 36 34 33 32 32 33 33 30 28 28 30 32 31 31 31 30 30 32 33 35 37 43 47 45 41 39 38 36 36 36 36 36 36 35 34 33 33 33 32 32
39 40 41 42 42 41 40 39 37 36 35 35 34 33 33 33 32 31 32 32 32 33 35 36 35 34 33 33 33 33 32 29 26 26 28 28 28 26 24 23 24 26 25 24 29 38 42 41 39 39 37 37 36 36 36 36 36 36 35 34 34 33 33
40 41 42 43 44 43 43 41 38 36 35 35 34 33 33 32 31 31 31 32 32 32 33 34 34 33 32 32 31 31 33 33 30 28 27 27 26 25 23 21 20 19 18 16 15 22 31 35 38 39 38 37 36 35 35 35 35 35 35 35 35 34 34
42 43 44 45 45 44 43 42 40 37 36 36 35 34 34 33 31 30 30 32 32 33 33 33 33 34 35 34 31 29 30 32 32 29 28 28 28 26 25 24 22 20 21 19 16 17 21 24 28 32 35 36 36 36 36 36 36 36 36 36 36 35 35
43 44 45 47 47 47 45 43 40 38 38 38 37 36 35 35 33 32 31 31 32 32 32 32 33 35 36 35 33 31 31 31 31 30 29 29 29 29 29 28 26 25 24 23 23 22 21 20 20 22 24 27 30 32 33 33 33 34 34 34 34 35 36
42 44 44 45 47 49 48 45 43 41 41 41 39 38 37 36 35 34 33 33 32 31 30 30 31 33 34 34 33 32 31 30 28 28 30 31 31 31 32 31 28 26 25 24 24 23 22 21 21 20 19 19 21 23 23 24 24 24 25 27 29 32 33
43 45 45 43 43 47 50 49 46 45 45 44 41 40 39 37 36 35 34 34 33 32 32 31 30 31 32 32 32 32 31 30 29 28 30 31 31 29 30 31 28 26 27 27 26 24 22 22 22 20 19 20 20 19 22 24 24 23 24 25 27 27 27
44 47 49 46 42 41 46 49 49 48 46 45 43 42 41 39 38 37 35 34 34 33 33 33 32 32 32 32 32 31 31 31 32 31 30 30 29 28 29 29 29 28 28 28 28 28 28 28 27 25 23 24 24 25 27 28 27 26 27 28 29 30 30
42 43 47 49 47 42 40 42 46 48 48 45 44 44 42 41 40 39 37 36 35 34 34 33 33 33 33 33 33 32 31 32 32 32 32 31 31 31 31 30 30 30 29 27 27 28 29 29 30 29 27 27 28 30 31 30 29 29 29 29 30 31 31
39 40 43 46 48 48 43 40 41 44 46 46 45 45 44 43 42 41 40 38 38 37 36 35 34 34 34 34 34 33 32 32 32 32 33 33 34 34 34 34 33 33 33 32 31 30 29 28 29 30 31 31 32 33 33 32 32 32 32 32 31 31 31
32 38 42 45 48 49 49 47 45 44 44 44 44 44 44 44 44 43 42 42 41 40 40 39 38 37 37 37 36 36 35 34 34 33 33 33 34 34 34 34 33 33 34 34 35 35 35 34 33 34 35 35 35 35 35 34 34 34 34 33 33 33 32
34 36 40 44 47 48 47 48 50 50 48 46 46 46 47 47 46 46 46 45 44 44 43 43 42 41 41 41 40 40 39 38 37 36 35 35 34 34 34 34 34 33 33 34 34 36 36 37 37 37 37 36 36 36 36 36 36 37 36 36 36 36 36
42 40 39 39 41 42 42 42 45 47 48 48 48 49 49 49 48 48 47 47 47 46 46 45 44 44 44 44 44 44 43 43 42 41 40 39 38 38 37 37 37 36 36 36 36 36 36 37 37 38 38 38 38 38 38 38 38 39 39 40 40 40 40
42 40 41 41 39 40 42 42 42 43 45 46 46 47 48 48 48 49 49 48 48 48 48 47 47 45 45 45 46 46 47 47 46 45 44 44 43 43 42 41 41 40 40 39 39 39 39 39 39 40 40 40 40 40 40 40 41 41 41 41 42 42 43
Wind_Direction
216 212 210 213 211 203 199 199 201 206 210 209 206 203 200 201 202 202 204 204 204 204 203 201 200 202 203 199 192 186 186 185 183 187 193 198 201 202 202 199 195 196 197 196 192 188 189 189 187 186 186 187 187 187 186 186 187 189 192 197 200 202 203
220 214 209 210 212 208 201 198 200 206 211 213 210 207 205 203 204 205 205 206 207 207 206 206 205 205 206 206 201 193 190 190 188 187 190 193 198 202 205 206 205 205 205 203 199 196 196 197 197 196 195 195 197 199 199 200 201 203 205 210 215 218 220
222 218 214 209 209 211 205 197 198 205 211 215 214 212 211 207 207 209 208 208 209 210 209 208 208 208 208 210 208 200 194 193 194 193 191 191 193 198 202 205 207 207 206 204 202 201 201 200 202 204 203 202 205 207 209 211 212 214 217 221 226 230 232
225 223 220 215 209 208 207 199 197 202 208 213 216 216 216 213 211 211 212 211 211 212 212 210 210 210 212 213 212 207 201 198 198 198 197 196 195 196 199 202 204 204 205 204 203 203 204 203 205 209 210 210 212 215 217 220 222 224 227 231 235 239 242
235 232 230 227 217 208 207 204 200 201 205 210 215 218 220 219 217 215 215 215 214 215 214 212 212 212 214 216 216 214 208 203 202 202 202 202 200 200 201 203 202 201 202 204 204 205 206 206 207 211 214 216 219 222 225 228 230 232 235 238 241 245 249
237 236 237 238 227 213 211 210 206 204 205 209 213 217 221 223 221 219 217 217 218 218 217 214 214 213 214 216 218 218 215 210 207 206 208 207 206 206 206 206 205 202 202 203 205 208 209 209 210 212 214 218 222 225 228 231 234 236 239 242 245 248 250
232 233 235 238 232 222 219 217 213 211 210 212 214 216 219 223 224 223 220 219 220 221 219 217 216 217 216 215 216 218 218 215 212 211 212 213 211 210 210 209 208 207 206 204 205 209 211 213 215 216 216 216 220 224 228 230 233 236 239 243 246 248 250
230 231 231 233 232 230 227 223 219 219 218 217 217 217 219 221 224 226 224 221 221 222 222 221 219 220 220 218 217 217 218 218 216 215 216 217 216 213 212 211 210 210 210 208 207 209 212 214 215 218 219 220 221 222 225 228 230 233 237 241 244 246 248
229 231 231 231 231 231 230 226 223 222 223 222 221 221 221 221 222 226 226 224 223 223 224 224 223 223 223 222 221 219 220 220 219 217 218 220 220 218 215 213 211 212 213 213 212 211 212 213 214 216 218 220 223 223 225 226 227 230 234 238 243 246 247
228 231 233 234 234 233 230 228 226 225 225 225 226 226 225 224 223 224 226 226 225 225 226 227 227 227 226 226 225 223 223 223 222 221 221 221 222 222 220 217 214 213 215 215 216 215 215 216 216 217 218 220 223 224 226 228 228 229 233 236 241 244 247
231 231 234 237 239 239 235 232 229 228 227 227 229 231 230 229 228 227 228 228 228 228 227 228 230 231 231 230 228 226 226 226 226 226 225 225 225 225 223 222 219 217 217 218 218 219 219 220 220 221 221 222 223 224 226 228 230 231 234 237 239 241 244
230 229 231 234 238 239 239 236 234 233 231 229 231 235 234 233 233 232 231 231 232 231 230 229 230 232 233 234 233 231 229 228 229 231 231 230 230 230 228 227 225 222 220 221 221 222 222 223 223 224 224 225 225 225 225 227 228 230 232 236 239 241 243
224 226 228 231 235 236 237 237 240 242 239 234 232 234 235 235 235 234 233 232 232 231 231 230 230 231 233 235 236 236 234 231 230 232 234 234 234 234 233 232 232 229 226 225 225 225 225 226 227 227 227 227 227 227 227 228 229 230 231 234 238 240 243
214 220 224 228 233 236 237 239 242 247 248 242 237 235 236 237 237 236 235 234 233 232 231 231 231 232 233 234 236 239 239 237 234 233 234 236 236 236 234 234 235 234 233 231 230 229 230 230 231 231 231 230 230 230 230 231 232 233 234 236 238 241 243
208 214 219 223 227 231 235 238 242 247 250 248 244 242 240 240 241 242 239 235 233 233 233 233 234 235 235 236 236 237 240 241 239 237 235 236 237 238 236 235 235 236 236 235 234 233 233 233 234 234 235 235 235 234 234 234 235 236 237 239 241 243 245
210 215 218 220 223 227 231 236 241 246 250 249 246 245 244 244 245 247 244 238 235 235 234 233 235 236 238 239 237 235 237 240 241 240 238 237 238 239 239 238 237 236 237 237 237 236 236 236 236 237 238 239 239 238 238 238 239 239 240 241 244 246 249
217 220 222 223 224 227 231 235 241 247 251 250 246 244 245 245 245 246 245 242 242 242 239 236 236 238 239 241 241 238 237 238 241 242 241 240 239 240 241 240 239 238 238 238 239 239 238 238 238 238 239 240 242 242 242 242 242 241 242 244 246 248 251
230 227 227 229 229 230 233 237 242 246 249 249 247 245 244 244 244 246 247 247 247 247 245 241 239 239 240 243 244 244 242 241 242 243 244 244 242 241 242 241 239 239 238 239 239 240 240 240 240 240 240 241 242 243 244 244 244 244 244 246 247 249 252
239 237 234 234 235 235 237 239 243 246 247 247 246 245 245 245 246 247 250 252 252 250 248 245 243 242 243 244 245 245 245 244 243 243 244 244 243 241 241 241 240 239 239 239 240 240 241 242 242 242 242 242 243 244 245 245 245 245 245 246 248 249 251
236 239 239 238 238 239 240 241 243 245 245 246 245 245 245 246 247 249 251 254 256 256 254 250 246 245 244 245 245 246 246 246 246 245 245 245 245 244 243 243 243 242 242 241 241 241 242 243 243 243 243 243 243 244 245 245 246 247 246 246 247 249 251
234 235 236 235 235 236 238 239 240 241 243 244 245 245 245 246 248 250 252 255 258 259 258 254 248 244 244 245 246 246 246 247 248 248 247 248 249 249 247 245 243 242 242 242 241 240 240 241 242 243 242 243 242 243 244 246 246 247 248 247 248 249 251
236 235 234 234 235 238 238 238 239 240 241 243 244 245 245 246 247 250 252 254 256 257 257 255 249 244 242 243 243 244 244 245 247 248 248 247 248 250 249 247 244 240 240 241 240 239 239 238 238 240 241 242 242 241 243 245 246 248 250 250 251 251 252
237 236 236 237 239 241 241 239 239 239 240 241 243 245 245 245 246 248 251 253 254 254 254 253 250 245 241 241 242 241 242 244 246 247 247 246 245 246 246 246 245 242 241 242 241 239 240 238 236 237 240 241 241 241 242 243 244 246 249 251 252 253 254
239 238 239 240 241 242 242 240 239 240 240 240 241 242 243 243 243 245 248 250 251 251 250 248 248 246 243 243 242 240 242 246 246 246 246 245 245 245 244 246 247 246 246 247 245 242 242 241 239 239 240 241 241 241 241 241 242 243 246 248 250 252 253
240 239 239 240 240 242 243 241 240 240 240 239 239 239 240 240 240 240 243 246 248 248 247 245 245 244 244 244 243 241 242 246 245 243 241 240 240 242 244 247 248 247 248 250 247 244 242 241 241 242 241 241 241 241 241 241 241 241 243 245 248 250 252
242 240 240 240 240 241 243 243 241 241 239 238 238 239 239 239 239 238 238 241 243 245 245 244 243 243 243 244 244 243 242 244 246 244 238 236 237 239 241 245 247 245 247 252 250 245 242 240 241 243 243 241 241 241 242 242 241 242 243 244 247 250 254
241 241 241 240 240 241 242 244 243 241 238 236 236 237 238 239 239 238 238 239 240 242 243 243 243 243 242 242 244 245 244 244 246 247 244 243 245 243 241 243 245 243 247 253 250 243 241 241 242 243 243 242 241 241 243 245 244 242 242 245 248 252 256
240 241 242 241 241 240 241 243 243 240 236 234 233 233 234 236 237 237 237 238 239 240 241 242 243 242 242 243 247 249 248 247 248 251 252 252 252 250 247 247 250 250 252 254 252 250 250 248 244 242 241 241 240 241 243 245 245 244 244 247 251 255 258
237 238 239 239 238 237 237 237 236 235 232 231 231 231 232 233 234 234 236 237 238 239 240 240 242 243 244 246 248 249 250 252 253 253 253 254 255 256 256 256 256 256 256 256 254 253 255 255 252 247 243 240 237 236 238 239 239 240 242 244 247 250 254
237 238 239 238 234 231 230 229 228 227 227 228 228 229 231 232 233 234 235 238 239 240 241 241 242 244 246 247 247 247 249 251 249 246 247 251 255 257 258 257 256 254 253 253 252 252 253 254 254 255 256 255 251 247 247 247 245 244 245 246 245 245 246
238 239 240 241 237 229 223 222 222 222 223 225 226 228 230 231 232 233 234 237 240 242 243 244 244 246 248 248 248 247 246 246 246 243 244 249 253 252 252 253 252 249 249 250 249 248 248 249 250 251 256 261 261 258 258 259 259 258 257 256 253 250 249
240 240 238 238 238 230 219 216 217 218 219 222 223 225 228 229 230 232 233 236 239 241 243 244 245 246 248 249 250 249 246 245 246 246 245 246 247 248 249 249 247 246 248 251 251 248 246 247 250 250 249 250 251 251 253 256 259 260 259 257 257 256 257
240 239 237 236 237 234 223 214 212 214 217 221 222 224 226 228 228 230 231 233 236 238 239 241 243 245 247 249 249 249 248 247 246 247 245 244 243 244 246 247 246 244 244 247 251 252 251 250 252 251 248 246 247 250 252 253 254 255 255 256 256 256 257
237 238 240 240 240 239 235 228 220 215 216 220 222 224 226 228 230 230 231 232 234 236 238 239 241 243 245 247 248 248 248 247 247 246 245 244 244 245 245 246 246 245 244 243 245 247 248 247 247 249 250 249 249 250 252 252 252 251 252 253 255 255 257
235 234 236 240 242 242 241 239 234 227 222 222 225 228 230 232 234 235 235 236 237 238 239 240 241 243 244 247 249 249 248 247 247 246 245 245 245 246 246 246 245 245 245 245 244 245 247 248 248 249 251 252 252 253 255 256 257 257 257 258 259 259 260
237 233 230 233 238 239 237 235 234 231 229 229 230 231 233 235 236 238 239 240 241 242 243 243 244 245 246 247 248 249 250 249 249 248 247 247 246 246 247 248 249 248 248 248 248 248 249 250 251 252 253 253 254 255 256 258 260 261 262 263 264 264 264
240 241 235 233 236 237 235 233 232 231 231 232 232 232 233 235 237 239 240 242 243 244 245 246 247 248 249 249 249 249 250 250 250 250 250 250 250 249 249 250 252 253 253 253 252 252 252 252 253 254 255 256 256 256 257 257 258 259 261 262 263 264 265
235 240 240 239 240 241 242 241 238 236 235 234 234 235 236 237 239 241 242 243 245 245 246 247 248 249 250 250 250 250 249 249 250 250 251 251 252 252 252 253 253 254 255 255 255 255 255 255 255 255 256 256 257 257 258 258 258 258 258 259 260 261 262
Height
5916 5918 5920 5921 5923 5925 5926 5927 5929 5931 5932 5933 5934 5935 5936 5938 5939 5940 5941 5942 5943 5944 5945 5946 5946 5947 5948 5949 5949 5950 5950 5951 5952 5953 5953 5954 5955 5956 5957 5958 5959 5960 5961 5961 5962 5963 5964 5965 5966 5966 5967 5968 5968 5969 5970 5971 5972 5972 5973 5973 5974 5975 5975
5914 5916 5918 5920 5922 5924 5925 5926 5927 5930 5932 5933 5934 5935 5936 5937 5938 5939 5940 5941 5942 5943 5944 5945 5946 5947 5948 5949 5949 5949 5950 5951 5952 5952 5953 5954 5955 5956 5957 5958 5959 5960 5960 5961 5962 5963 5964 5965 5966 5967 5967 5968 5969 5970 5970 5971 5972 5973 5973 5974 5974 5975 5975
5913 5915 5917 5919 5921 5922 5924 5925 5926 5928 5930 5932 5933 5934 5935 5936 5937 5938 5939 5941 5942 5943 5943 5944 5945 5946 5947 5948 5949 5949 5950 5951 5951 5952 5953 5954 5955 5956 5957 5957 5958 5959 5960 5961 5962 5963 5964 5965 5966 5967 5967 5968 5969 5970 5971 5971 5972 5973 5973 5974 5974 5975 5975
5912 5914 5916 5917 5919 5920 5922 5923 5925 5927 5929 5930 5932 5933 5934 5935 5936 5937 5939 5940 5941 5942 5943 5944 5945 5946 5947 5948 5949 5949 5950 5950 5951 5952 5953 5953 5954 5955 5956 5957 5958 5959 5960 5961 5962 5962 5963 5964 5965 5966 5967 5968 5969 5970 5970 5971 5972 5972 5973 5973 5974 5974 5974
5911 5912 5913 5915 5916 5918 5920 5922 5923 5924 5927 5928 5930 5931 5933 5934 5935 5937 5938 5939 5940 5941 5942 5943 5944 5945 5946 5947 5948 5949 5949 5950 5951 5952 5952 5953 5954 5954 5955 5956 5957 5958 5959 5960 5961 5962 5963 5964 5964 5965 5966 5967 5968 5969 5970 5971 5971 5972 5972 5973 5973 5973 5974
5909 5910 5911 5913 5915 5917 5918 5919 5921 5922 5924 5926 5928 5929 5931 5933 5934 5936 5937 5938 5939 5940 5941 5942 5943 5944 5945 5946 5947 5948 5949 5949 5950 5951 5952 5952 5953 5953 5954 5955 5956 5957 5959 5960 5961 5962 5963 5963 5964 5965 5965 5966 5967 5968 5969 5970 5970 5971 5971 5972 5972 5973 5973
5907 5908 5910 5911 5914 5915 5916 5917 5919 5921 5922 5924 5925 5927 5929 5931 5933 5934 5935 5936 5938 5939 5940 5941 5942 5943 5943 5944 5945 5946 5947 5948 5949 5950 5951 5951 5952 5952 5953 5954 5955 5956 5958 5959 5960 5961 5962 5963 5963 5964 5964 5965 5966 5967 5968 5968 5969 5970 5970 5971 5971 5972 5972
5906 5907 5908 5910 5912 5913 5915 5916 5918 5919 5920 5922 5923 5925 5927 5929 5931 5932 5933 5934 5936 5937 5938 5939 5941 5941 5942 5943 5944 5945 5946 5947 5948 5949 5949 5950 5951 5951 5952 5953 5954 5955 5956 5957 5958 5959 5960 5961 5962 5963 5963 5964 5965 5966 5966 5967 5968 5969 5969 5970 5970 5970 5971
5904 5905 5906 5908 5909 5911 5913 5914 5915 5917 5919 5920 5921 5923 5925 5927 5928 5930 5931 5932 5933 5935 5936 5937 5939 5940 5941 5942 5943 5944 5945 5946 5947 5947 5948 5949 5949 5950 5951 5952 5953 5954 5955 5956 5957 5958 5959 5960 5961 5961 5962 5963 5964 5965 5965 5966 5967 5967 5968 5968 5969 5969 5969
5903 5904 5905 5906 5907 5909 5910 5912 5914 5915 5916 5918 5920 5921 5922 5924 5926 5927 5929 5930 5931 5932 5934 5935 5937 5938 5940 5941 5942 5943 5944 5944 5945 5946 5946 5947 5947 5949 5950 5950 5951 5952 5953 5954 5955 5956 5957 5958 5959 5960 5961 5962 5963 5964 5964 5965 5966 5966 5967 5967 5967 5968 5968
5902 5903 5904 5905 5906 5907 5909 5910 5913 5914 5914 5915 5917 5919 5921 5923 5924 5926 5927 5928 5929 5930 5932 5933 5935 5936 5937 5938 5940 5941 5942 5943 5944 5944 5944 5945 5945 5947 5948 5949 5950 5951 5951 5952 5953 5954 5955 5956 5956 5957 5959 5960 5961 5962 5963 5964 5964 5965 5965 5966 5966 5966 5967
5900 5901 5902 5903 5904 5906 5907 5908 5910 5911 5912 5913 5915 5917 5920 5921 5922 5924 5925 5926 5927 5929 5930 5931 5932 5933 5935 5936 5937 5939 5940 5941 5942 5942 5943 5943 5944 5945 5946 5947 5948 5949 5950 5951 5951 5952 5953 5954 5954 5955 5956 5957 5958 5959 5960 5961 5962 5963 5963 5964 5964 5965 5965
5897 5899 5900 5901 5903 5904 5905 5906 5907 5908 5909 5910 5913 5915 5917 5918 5920 5921 5923 5924 5925 5926 5927 5928 5929 5931 5932 5933 5935 5936 5937 5938 5939 5940 5941 5942 5942 5943 5945 5946 5947 5947 5948 5949 5949 5950 5951 5952 5952 5953 5954 5955 5956 5957 5958 5959 5959 5960 5961 5962 5962 5963 5963
5894 5896 5897 5899 5900 5902 5903 5903 5905 5906 5907 5908 5910 5912 5913 5915 5916 5918 5920 5921 5922 5923 5924 5926 5928 5929 5930 5931 5933 5934 5935 5936 5936 5937 5938 5939 5940 5941 5942 5943 5945 5945 5946 5947 5947 5948 5948 5949 5950 5951 5951 5952 5953 5954 5955 5956 5957 5958 5959 5960 5960 5961 5961
5890 5892 5894 5896 5898 5899 5900 5901 5902 5903 5904 5906 5907 5909 5911 5912 5912 5914 5916 5917 5919 5920 5922 5924 5926 5927 5928 5929 5930 5931 5932 5933 5934 5934 5935 5936 5938 5939 5940 5941 5942 5943 5944 5944 5945 5945 5946 5946 5947 5948 5949 5950 5951 5952 5953 5954 5954 5956 5957 5958 5958 5959 5959
5886 5889 5890 5893 5894 5896 5897 5898 5900 5901 5902 5903 5904 5906 5908 5909 5910 5911 5913 5914 5916 5918 5919 5921 5923 5924 5925 5926 5927 5928 5928 5929 5930 5931 5933 5934 5935 5937 5938 5939 5940 5941 5942 5942 5942 5942 5943 5944 5944 5945 5946 5947 5948 5950 5950 5951 5952 5953 5954 5955 5955 5956 5957
5883 5885 5887 5889 5891 5893 5894 5895 5897 5898 5899 5900 5902 5903 5905 5906 5907 5908 5910 5911 5913 5914 5916 5917 5919 5921 5922 5922 5924 5925 5926 5927 5928 5929 5930 5931 5933 5934 5935 5936 5937 5938 5938 5939 5939 5940 5940 5940 5941 5942 5943 5944 5945 5947 5948 5949 5949 5950 5951 5952 5953 5953 5954
5879 5882 5884 5886 5888 5889 5891 5892 5894 5895 5896 5898 5899 5900 5902 5903 5904 5905 5907 5908 5909 5911 5912 5913 5914 5916 5917 5919 5920 5922 5923 5924 5925 5926 5927 5929 5930 5931 5931 5931 5932 5933 5934 5935 5936 5937 5937 5938 5938 5939 5940 5941 5942 5944 5945 5947 5947 5947 5948 5949 5950 5950 5951
5876 5878 5880 5882 5884 5886 5888 5889 5890 5892 5894 5895 5896 5897 5898 5900 5901 5902 5904 5905 5906 5907 5908 5909 5911 5912 5914 5915 5917 5918 5919 5920 5922 5923 5924 5925 5926 5926 5926 5927 5928 5930 5931 5932 5933 5934 5934 5935 5936 5937 5937 5938 5939 5941 5943 5944 5944 5944 5945 5946 5946 5947 5948
5873 5875 5876 5879 5881 5883 5884 5886 5887 5889 5890 5892 5893 5894 5895 5896 5898 5899 5901 5902 5902 5903 5904 5906 5907 5909 5910 5911 5912 5913 5915 5916 5917 5918 5920 5921 5921 5922 5922 5924 5926 5927 5928 5929 5929 5930 5931 5932 5933 5933 5934 5935 5936 5938 5939 5940 5940 5941 5942 5942 5943 5944 5945
5870 5871 5873 5875 5877 5879 5880 5882 5884 5886 5887 5888 5889 5891 5892 5893 5894 5896 5898 5898 5899 5900 5901 5902 5903 5905 5906 5906 5908 5910 5911 5911 5912 5914 5915 5916 5917 5918 5919 5921 5922 5923 5924 5925 5926 5926 5927 5928 5929 5930 5930 5931 5933 5935 5936 5936 5937 5938 5938 5939 5940 5941 5942
5866 5868 5870 5872 5873 5875 5876 5878 5880 5881 5883 5884 5885 5887 5888 5890 5891 5892 5894 5895 5896 5897 5898 5899 5900 5900 5901 5902 5904 5905 5906 5908 5909 5910 5911 5912 5912 5914 5915 5915 5916 5918 5919 5919 5921 5921 5921 5923 5925 5926 5926 5927 5929 5932 5932 5933 5934 5935 5936 5937 5938 5938 5939
5862 5864 5866 5868 5869 5871 5872 5874 5875 5877 5878 5880 5881 5882 5884 5886 5887 5888 5890 5891 5892 5893 5895 5896 5896 5896 5897 5898 5899 5900 5902 5903 5904 5906 5907 5908 5909 5909 5910 5910 5911 5913 5913 5914 5916 5916 5916 5918 5921 5922 5923 5924 5926 5928 5928 5929 5931 5932 5933 5934 5935 5935 5936
5859 5861 5862 5863 5865 5866 5868 5869 5871 5872 5874 5875 5877 5878 5880 5881 5883 5885 5886 5887 5888 5889 5891 5892 5892 5893 5894 5895 5895 5896 5897 5898 5900 5901 5903 5904 5905 5906 5906 5906 5906 5907 5908 5909 5911 5911 5912 5914 5916 5918 5920 5921 5922 5923 5924 5925 5927 5928 5929 5930 5931 5932 5933
5854 5855 5857 5858 5860 5861 5863 5865 5866 5868 5869 5871 5872 5874 5875 5877 5879 5881 5882 5883 5884 5885 5887 5887 5888 5890 5892 5891 5891 5892 5894 5895 5896 5897 5899 5900 5901 5901 5902 5903 5903 5903 5904 5905 5906 5906 5908 5910 5912 5914 5916 5917 5918 5919 5920 5921 5922 5923 5924 5926 5927 5928 5929
5849 5850 5851 5853 5854 5856 5858 5860 5861 5863 5865 5866 5867 5869 5870 5872 5874 5877 5878 5880 5880 5881 5882 5883 5884 5886 5887 5887 5888 5889 5891 5892 5893 5894 5895 5896 5897 5898 5899 5900 5900 5900 5901 5901 5901 5901 5904 5906 5908 5910 5911 5912 5913 5914 5915 5917 5918 5919 5920 5921 5923 5924 5925
5843 5844 5846 5847 5849 5851 5852 5854 5856 5858 5860 5861 5863 5864 5866 5867 5869 5872 5874 5875 5876 5877 5878 5879 5881 5882 5883 5883 5884 5886 5887 5888 5889 5891 5892 5892 5893 5895 5896 5896 5896 5897 5897 5897 5897 5898 5900 5902 5903 5905 5906 5907 5908 5910 5911 5912 5914 5915 5916 5917 5918 5919 5920
5836 5838 5839 5841 5843 5845 5847 5849 5851 5853 5855 5857 5858 5859 5861 5863 5865 5867 5869 5870 5872 5874 5875 5876 5877 5879 5879 5880 5882 5883 5883 5885 5886 5888 5889 5889 5890 5891 5893 5893 5894 5894 5894 5894 5895 5896 5898 5899 5900 5900 5902 5903 5904 5906 5907 5908 5909 5910 5911 5913 5914 5915 5916
5830 5831 5833 5835 5836 5838 5840 5843 5845 5847 5849 5851 5853 5855 5856 5858 5860 5862 5864 5866 5868 5870 5872 5873 5874 5875 5876 5877 5879 5880 5881 5882 5883 5885 5886 5886 5886 5887 5888 5890 5892 5893 5893 5893 5894 5895 5896 5897 5896 5897 5899 5900 5901 5902 5903 5903 5904 5905 5906 5908 5909 5910 5911
5823 5825 5827 5829 5830 5831 5833 5836 5838 5841 5843 5845 5848 5850 5851 5853 5855 5857 5859 5861 5863 5865 5867 5869 5870 5871 5872 5874 5875 5877 5877 5878 5880 5882 5883 5882 5883 5884 5884 5885 5888 5890 5890 5891 5892 5893 5895 5895 5894 5895 5897 5897 5898 5899 5899 5899 5900 5901 5902 5903 5904 5905 5906
5818 5819 5821 5823 5824 5825 5826 5829 5832 5834 5837 5840 5842 5845 5847 5849 5851 5853 5855 5856 5858 5860 5862 5864 5866 5867 5868 5869 5871 5873 5874 5875 5876 5878 5879 5879 5880 5881 5881 5882 5884 5886 5887 5888 5889 5891 5892 5892 5892 5893 5895 5895 5896 5897 5897 5896 5897 5898 5899 5900 5900 5901 5902
5814 5815 5816 5817 5819 5820 5820 5822 5825 5828 5831 5833 5836 5839 5841 5844 5846 5848 5850 5852 5854 5856 5858 5860 5862 5863 5864 5865 5867 5868 5870 5871 5872 5873 5875 5876 5877 5878 5879 5879 5881 5882 5883 5884 5886 5887 5888 5888 5889 5890 5892 5893 5893 5893 5894 5894 5894 5895 5896 5896 5897 5897 5898
5808 5810 5810 5811 5813 5816 5817 5817 5818 5822 5825 5827 5830 5833 5836 5838 5841 5843 5845 5847 5849 5851 5853 5855 5856 5858 5859 5861 5862 5863 5865 5867 5868 5869 5870 5872 5873 5875 5876 5876 5877 5879 5880 5881 5882 5882 5883 5884 5885 5886 5888 5889 5889 5889 5890 5890 5891 5891 5892 5892 5893 5893 5894
5803 5805 5805 5805 5807 5810 5812 5813 5814 5816 5818 5821 5824 5827 5830 5833 5835 5837 5839 5842 5843 5845 5847 5849 5851 5853 5854 5856 5857 5859 5860 5862 5864 5865 5866 5868 5869 5870 5872 5873 5874 5876 5877 5878 5879 5879 5879 5880 5881 5882 5883 5884 5885 5886 5886 5887 5887 5888 5888 5889 5889 5890 5890
5799 5800 5800 5799 5800 5802 5805 5807 5809 5811 5814 5816 5819 5822 5824 5827 5830 5832 5834 5836 5838 5840 5842 5844 5846 5848 5849 5851 5852 5854 5855 5857 5859 5860 5862 5863 5865 5866 5867 5869 5871 5872 5873 5874 5875 5876 5876 5877 5878 5878 5879 5880 5881 5882 5882 5883 5883 5884 5884 5885 5885 5885 5886
5794 5795 5795 5794 5794 5795 5797 5799 5802 5805 5808 5811 5814 5817 5819 5822 5824 5826 5829 5831 5833 5835 5837 5838 5840 5842 5844 5846 5847 5849 5850 5852 5854 5855 5857 5858 5860 5861 5863 5864 5866 5867 5869 5870 5871 5872 5872 5873 5874 5875 5875 5876 5877 5877 5878 5878 5879 5879 5879 5880 5880 5880 5881
5790 5791 5791 5791 5790 5790 5792 5793 5796 5799 5802 5805 5808 5811 5813 5816 5818 5820 5822 5825 5827 5829 5831 5833 5835 5837 5838 5841 5842 5844 5845 5847 5848 5850 5852 5853 5855 5856 5858 5859 5861 5862 5863 5865 5866 5867 5868 5869 5869 5870 5871 5872 5872 5873 5873 5874 5875 5875 5875 5875 5876 5876 5876
5784 5785 5787 5787 5786 5786 5787 5790 5792 5794 5796 5799 5802 5805 5807 5810 5812 5814 5816 5818 5820 5822 5825 5827 5829 5831 5833 5835 5836 5837 5839 5841 5843 5844 5846 5848 5849 5851 5853 5854 5855 5856 5857 5858 5859 5861 5862 5863 5864 5865 5865 5866 5867 5867 5868 5869 5870 5870 5871 5871 5871 5871 5872